XSN02L LFML-EDDH

Flight info

Callsign XSN02L
Flight time 1h 53m
Altitude 30000
Route MTL A6 DANBO/N0395F180 A6 DJL/N0408F300 T37 KASON G21 GTQ Q252 ERADI/N0407F310 DCT TOLEY DCT ABSIX DCT AMASI DCT MONAX DCT ERNEP DCT ESADU/N0420F230 P12 NORTA/N0405F320 P605 NOLGO NOLGO6A
Aircraft B462/M-SDFGIRWY/LB1

Departure

Time 2026-05-05 09:04
Airport Marseille Provence Airport (LFML)

Arrival

Time 2026-05-05 10:57
Airport Hamburg Helmut Schmidt Airport (EDDH)
Time Latitude Longitude Altitude Speed Heading
2026-05-05 09:04 43.47200 5.12488 5985 ft 261 kts 280°
2026-05-05 09:04 43.48042 5.10285 6697 ft 268 kts 313°
2026-05-05 09:04 43.49634 5.08885 7353 ft 276 kts 331°
2026-05-05 09:04 43.51365 5.07696 8011 ft 279 kts 327°
2026-05-05 09:05 43.53022 5.06334 8667 ft 283 kts 324°
2026-05-05 09:05 43.54650 5.04774 9373 ft 286 kts 320°
2026-05-05 09:05 43.56219 5.03059 10056 ft 289 kts 316°
2026-05-05 09:05 43.57733 5.01224 10729 ft 291 kts 314°
2026-05-05 09:06 43.59224 4.99308 11407 ft 294 kts 313°
2026-05-05 09:06 43.60690 4.97352 12008 ft 297 kts 311°
2026-05-05 09:06 43.62162 4.95323 12605 ft 300 kts 310°
2026-05-05 09:06 43.63644 4.93246 13144 ft 304 kts 310°
2026-05-05 09:07 43.65125 4.91136 13690 ft 307 kts 309°
2026-05-05 09:07 43.66611 4.88995 14165 ft 310 kts 309°
2026-05-05 09:07 43.68215 4.86975 14600 ft 318 kts 324°
2026-05-05 09:07 43.70269 4.85815 15024 ft 327 kts 339°
2026-05-05 09:08 43.72467 4.84959 15451 ft 330 kts 340°
2026-05-05 09:08 43.74705 4.84142 15855 ft 333 kts 341°
2026-05-05 09:08 43.76967 4.83336 16254 ft 336 kts 341°
2026-05-05 09:08 43.79244 4.82533 16643 ft 338 kts 341°
2026-05-05 09:09 43.81500 4.81716 17040 ft 341 kts 341°
2026-05-05 09:09 43.83796 4.80850 17454 ft 343 kts 340°
2026-05-05 09:09 43.86112 4.79969 17840 ft 345 kts 340°
2026-05-05 09:09 43.88431 4.79079 18198 ft 347 kts 340°
2026-05-05 09:10 43.90757 4.78162 18472 ft 348 kts 339°
2026-05-05 09:10 43.93095 4.77224 18763 ft 349 kts 339°
2026-05-05 09:10 43.95436 4.76279 19000 ft 351 kts 339°
2026-05-05 09:10 43.97789 4.75338 19261 ft 353 kts 341°
2026-05-05 09:11 44.00255 4.74827 19517 ft 360 kts 353°
2026-05-05 09:11 44.02741 4.74748 19790 ft 364 kts 356°
2026-05-05 09:11 44.05280 4.74816 20081 ft 365 kts 358°
2026-05-05 09:11 44.07823 4.74973 20394 ft 367 kts 359°
2026-05-05 09:12 44.10383 4.75164 20639 ft 369 kts 359°
2026-05-05 09:12 44.12956 4.75373 20879 ft 371 kts 360°
2026-05-05 09:12 44.15537 4.75560 21118 ft 372 kts 360°
2026-05-05 09:12 44.18132 4.75747 21338 ft 373 kts 359°
2026-05-05 09:13 44.20728 4.75905 21571 ft 374 kts 359°
2026-05-05 09:13 44.23343 4.76057 21795 ft 375 kts 359°
2026-05-05 09:13 44.25928 4.76205 22016 ft 377 kts 359°
2026-05-05 09:13 44.28588 4.76356 22238 ft 378 kts 359°
2026-05-05 09:14 44.31189 4.76493 22460 ft 379 kts 359°
2026-05-05 09:14 44.33829 4.76647 22673 ft 381 kts 359°
2026-05-05 09:14 44.36488 4.76815 22883 ft 383 kts 360°
2026-05-05 09:14 44.39158 4.76990 23124 ft 384 kts 360°
2026-05-05 09:15 44.41838 4.77168 23331 ft 386 kts 360°
2026-05-05 09:15 44.44530 4.77350 23556 ft 387 kts 359°
2026-05-05 09:15 44.46308 4.77457 23674 ft 387 kts 359°
2026-05-05 09:15 44.49017 4.77600 23844 ft 389 kts 359°
2026-05-05 09:16 44.51727 4.77771 24015 ft 391 kts
2026-05-05 09:16 44.54440 4.78309 24188 ft 394 kts 11°
2026-05-05 09:16 44.57081 4.79389 24345 ft 396 kts 19°
2026-05-05 09:16 44.59645 4.80831 24508 ft 398 kts 23°
2026-05-05 09:17 44.62128 4.82456 24669 ft 399 kts 25°
2026-05-05 09:17 44.64618 4.84217 24835 ft 401 kts 27°
2026-05-05 09:17 44.67100 4.86035 24990 ft 402 kts 27°
2026-05-05 09:17 44.69590 4.87865 25153 ft 404 kts 27°
2026-05-05 09:18 44.72097 4.89689 25317 ft 405 kts 26°
2026-05-05 09:18 44.74612 4.91478 25462 ft 406 kts 26°
2026-05-05 09:18 44.77148 4.93267 25614 ft 408 kts 25°
2026-05-05 09:18 44.79674 4.95008 25786 ft 409 kts 25°
2026-05-05 09:19 44.82241 4.96765 25876 ft 411 kts 25°
2026-05-05 09:19 44.84818 4.98533 26024 ft 412 kts 25°
2026-05-05 09:19 44.87397 5.00305 26183 ft 413 kts 25°
2026-05-05 09:19 44.89984 5.02088 26417 ft 412 kts 25°
2026-05-05 09:20 44.92565 5.03873 26598 ft 413 kts 26°
2026-05-05 09:20 44.95137 5.05691 26736 ft 414 kts 26°
2026-05-05 09:20 44.97727 5.07523 26881 ft 415 kts 26°
2026-05-05 09:20 45.00284 5.09318 27007 ft 417 kts 26°
2026-05-05 09:21 45.02891 5.11147 27152 ft 418 kts 26°
2026-05-05 09:21 45.05505 5.12985 27296 ft 419 kts 25°
2026-05-05 09:21 45.08187 5.14615 27446 ft 419 kts 16°
2026-05-05 09:21 45.11019 5.15529 27640 ft 416 kts
2026-05-05 09:22 45.13912 5.15832 27798 ft 415 kts 358°
2026-05-05 09:22 45.16799 5.15765 27925 ft 415 kts 354°
2026-05-05 09:22 45.19652 5.15499 28051 ft 415 kts 352°
2026-05-05 09:22 45.22533 5.15146 28177 ft 415 kts 351°
2026-05-05 09:23 45.25413 5.14763 28303 ft 416 kts 351°
2026-05-05 09:23 45.28305 5.14362 28442 ft 417 kts 352°
2026-05-05 09:23 45.31212 5.13969 28577 ft 418 kts 352°
2026-05-05 09:23 45.34117 5.13602 28720 ft 419 kts 353°
2026-05-05 09:24 45.37033 5.13274 28845 ft 420 kts 353°
2026-05-05 09:24 45.39955 5.12972 28966 ft 421 kts 353°
2026-05-05 09:24 45.42852 5.12654 29089 ft 422 kts 353°
2026-05-05 09:24 45.45787 5.12453 29190 ft 425 kts
2026-05-05 09:25 45.48672 5.13389 29324 ft 425 kts 22°
2026-05-05 09:25 45.51399 5.15051 29434 ft 426 kts 24°
2026-05-05 09:25 45.54133 5.16701 29543 ft 427 kts 22°
2026-05-05 09:25 45.56909 5.18211 29672 ft 427 kts 20°
2026-05-05 09:26 45.59726 5.19580 29826 ft 427 kts 18°
2026-05-05 09:26 45.65408 5.22040 29918 ft 432 kts 16°
2026-05-05 09:27 45.71204 5.24423 29913 ft 433 kts 17°
2026-05-05 09:27 45.77007 5.26823 29906 ft 434 kts 17°
2026-05-05 09:28 45.82803 5.29263 29904 ft 434 kts 17°
2026-05-05 09:28 45.88608 5.31753 29921 ft 435 kts 18°
2026-05-05 09:29 45.94433 5.34223 29961 ft 438 kts 18°
2026-05-05 09:29 46.00313 5.36719 29953 ft 442 kts 18°
2026-05-05 09:30 46.06237 5.39234 29901 ft 444 kts 18°
2026-05-05 09:30 46.12125 5.41776 29898 ft 444 kts 18°
2026-05-05 09:31 46.18079 5.44307 29892 ft 445 kts 18°
2026-05-05 09:31 46.24022 5.46863 29891 ft 445 kts 19°
2026-05-05 09:32 46.29923 5.49458 29902 ft 446 kts 18°
2026-05-05 09:32 46.35894 5.51999 29900 ft 447 kts 18°
2026-05-05 09:33 46.41875 5.54604 29890 ft 448 kts 19°
2026-05-05 09:33 46.47816 5.57216 29881 ft 448 kts 19°
2026-05-05 09:34 46.53804 5.59790 29874 ft 448 kts 18°
2026-05-05 09:34 46.59780 5.62401 29875 ft 448 kts 19°
2026-05-05 09:35 46.65748 5.65029 29869 ft 448 kts 19°
2026-05-05 09:35 46.74725 5.68925 29873 ft 448 kts 19°
2026-05-05 09:36 46.75047 5.69066 29874 ft 448 kts 19°
2026-05-05 09:36 46.79048 5.70838 29858 ft 451 kts 19°
2026-05-05 09:37 46.82608 5.72428 29870 ft 454 kts 19°
2026-05-05 09:38 46.85231 5.73595 29864 ft 456 kts 19°
2026-05-05 09:39 46.87923 5.74794 29861 ft 458 kts 19°
2026-05-05 09:40 46.92281 5.76676 29873 ft 461 kts 18°
2026-05-05 09:41 46.93737 5.77303 29873 ft 462 kts 18°
2026-05-05 09:41 46.96641 5.78587 29873 ft 464 kts 19°
2026-05-05 09:42 47.01749 5.80874 29873 ft 466 kts 19°
2026-05-05 09:42 47.07900 5.83598 29870 ft 462 kts 19°
2026-05-05 09:43 47.14058 5.86288 29860 ft 460 kts 19°
2026-05-05 09:43 47.20180 5.88985 29867 ft 458 kts 19°
2026-05-05 09:44 47.26263 5.91751 29862 ft 456 kts 20°
2026-05-05 09:44 47.32330 5.94497 29866 ft 455 kts 20°
2026-05-05 09:45 47.38377 5.97230 29875 ft 454 kts 19°
2026-05-05 09:45 47.44428 5.99920 29866 ft 453 kts 20°
2026-05-05 09:46 47.50406 6.02625 29871 ft 451 kts 20°
2026-05-05 09:46 47.56408 6.05348 29868 ft 450 kts 20°
2026-05-05 09:47 47.62408 6.08071 29865 ft 449 kts 20°
2026-05-05 09:47 47.68338 6.10763 29867 ft 447 kts 19°
2026-05-05 09:48 47.74293 6.13491 29877 ft 446 kts 19°
2026-05-05 09:48 47.80205 6.16173 29887 ft 445 kts 20°
2026-05-05 09:49 47.86129 6.18917 29898 ft 446 kts 20°
2026-05-05 09:49 47.92072 6.21606 29892 ft 447 kts 19°
2026-05-05 09:50 47.98031 6.24322 29893 ft 447 kts 20°
2026-05-05 09:50 48.03987 6.27103 29892 ft 448 kts 20°
2026-05-05 09:51 48.09912 6.29837 29874 ft 447 kts 19°
2026-05-05 09:51 48.15883 6.32551 29882 ft 447 kts 19°
2026-05-05 09:52 48.21838 6.35353 29904 ft 448 kts 19°
2026-05-05 09:52 48.27816 6.38103 29959 ft 450 kts 19°
2026-05-05 09:53 48.33818 6.40894 29901 ft 452 kts 19°
2026-05-05 09:53 48.39792 6.43677 29881 ft 451 kts 19°
2026-05-05 09:54 48.45804 6.46482 29872 ft 450 kts 19°
2026-05-05 09:54 48.51774 6.49336 29870 ft 449 kts 19°
2026-05-05 09:55 48.57739 6.52179 29926 ft 449 kts 19°
2026-05-05 09:55 48.63679 6.55013 29899 ft 451 kts 19°
2026-05-05 09:56 48.68712 6.57403 29917 ft 452 kts 18°
2026-05-05 09:56 48.75712 6.60699 29957 ft 454 kts 19°
2026-05-05 09:57 48.81762 6.63596 29919 ft 456 kts 19°
2026-05-05 09:57 48.86794 6.66017 29893 ft 456 kts 19°
2026-05-05 09:58 48.92853 6.68926 29882 ft 454 kts 18°
2026-05-05 09:58 48.98859 6.71733 29917 ft 455 kts 16°
2026-05-05 09:59 49.05034 6.73923 29928 ft 456 kts 12°
2026-05-05 09:59 49.11265 6.75872 29897 ft 456 kts 12°
2026-05-05 10:00 49.17403 6.78298 29887 ft 455 kts 20°
2026-05-05 10:00 49.23221 6.82026 29874 ft 453 kts 26°
2026-05-05 10:01 49.28905 6.86187 29873 ft 451 kts 27°
2026-05-05 10:01 49.34518 6.90360 29887 ft 451 kts 26°
2026-05-05 10:02 49.40189 6.94521 29879 ft 451 kts 26°
2026-05-05 10:02 49.45878 6.98583 29875 ft 450 kts 26°
2026-05-05 10:03 49.51540 7.02709 29874 ft 450 kts 26°
2026-05-05 10:03 49.57199 7.06848 29868 ft 450 kts 25°
2026-05-05 10:04 49.62815 7.10951 29865 ft 449 kts 25°
2026-05-05 10:04 49.68482 7.15038 29869 ft 448 kts 25°
2026-05-05 10:05 49.74126 7.19184 29877 ft 448 kts 25°
2026-05-05 10:05 49.79760 7.23311 29867 ft 447 kts 24°
2026-05-05 10:06 49.85363 7.27380 29854 ft 447 kts 25°
2026-05-05 10:06 49.90980 7.31531 29861 ft 446 kts 26°
2026-05-05 10:07 49.96476 7.36000 29888 ft 445 kts 28°
2026-05-05 10:07 50.01855 7.40791 29886 ft 445 kts 29°
2026-05-05 10:08 50.07236 7.45595 29882 ft 445 kts 29°
2026-05-05 10:08 50.12580 7.50375 29861 ft 445 kts 29°
2026-05-05 10:09 50.17943 7.55184 29870 ft 444 kts 28°
2026-05-05 10:09 50.23312 7.59969 29860 ft 444 kts 28°
2026-05-05 10:10 50.28797 7.64405 29861 ft 443 kts 25°
2026-05-05 10:10 50.34344 7.68622 29865 ft 443 kts 24°
2026-05-05 10:11 50.39857 7.72822 29870 ft 443 kts 24°
2026-05-05 10:11 50.45390 7.77075 29866 ft 443 kts 25°
2026-05-05 10:12 50.50919 7.81377 29871 ft 443 kts 26°
2026-05-05 10:12 50.56234 7.86226 29872 ft 444 kts 31°
2026-05-05 10:13 50.61420 7.91496 29878 ft 444 kts 32°
2026-05-05 10:13 50.66597 7.96821 29880 ft 443 kts 31°
2026-05-05 10:14 50.71784 8.02132 29879 ft 443 kts 31°
2026-05-05 10:14 50.76978 8.07374 29894 ft 443 kts 31°
2026-05-05 10:15 50.82177 8.12656 29901 ft 444 kts 31°
2026-05-05 10:15 50.87339 8.17958 29878 ft 444 kts 31°
2026-05-05 10:16 50.92548 8.23271 29870 ft 444 kts 31°
2026-05-05 10:16 50.97709 8.28572 29858 ft 444 kts 32°
2026-05-05 10:17 51.02847 8.34023 29852 ft 444 kts 32°
2026-05-05 10:17 51.07977 8.39531 29861 ft 444 kts 32°
2026-05-05 10:18 51.13088 8.45055 29871 ft 444 kts 32°
2026-05-05 10:18 51.18166 8.50565 29861 ft 444 kts 33°
2026-05-05 10:19 51.23242 8.56164 29860 ft 443 kts 33°
2026-05-05 10:19 51.28332 8.61743 29856 ft 443 kts 32°
2026-05-05 10:20 51.33440 8.67282 29879 ft 443 kts 32°
2026-05-05 10:20 51.38512 8.72919 29873 ft 444 kts 39°
2026-05-05 10:21 51.40624 8.76450 29887 ft 445 kts 52°
2026-05-05 10:21 51.42320 8.80596 29887 ft 445 kts 61°
2026-05-05 10:21 51.44988 8.89543 29880 ft 444 kts 68°
2026-05-05 10:22 51.47349 8.98698 29877 ft 444 kts 68°
2026-05-05 10:22 51.49724 9.07857 29861 ft 444 kts 65°
2026-05-05 10:23 51.52860 9.16412 29773 ft 446 kts 55°
2026-05-05 10:23 51.54656 9.20446 30014 ft 438 kts 53°
2026-05-05 10:23 51.56459 9.24321 30371 ft 428 kts 52°
2026-05-05 10:24 51.58271 9.28095 29950 ft 439 kts 51°
2026-05-05 10:24 51.60215 9.31998 29728 ft 445 kts 50°
2026-05-05 10:24 51.62071 9.35610 31231 ft 369 kts 49°
2026-05-05 10:24 51.63475 9.38596 33579 ft 314 kts 53°
2026-05-05 10:25 51.64718 9.41532 33067 ft 330 kts 54°
2026-05-05 10:25 51.66033 9.44699 32399 ft 348 kts 55°
2026-05-05 10:25 51.67403 9.48008 31889 ft 361 kts 54°
2026-05-05 10:25 51.68853 9.51421 31386 ft 374 kts 50°
2026-05-05 10:26 51.70556 9.54640 31004 ft 381 kts 44°
2026-05-05 10:26 51.72443 9.57742 30661 ft 394 kts 41°
2026-05-05 10:26 51.74441 9.60890 30332 ft 407 kts 41°
2026-05-05 10:26 51.76503 9.64127 30052 ft 419 kts 42°
2026-05-05 10:27 51.78610 9.67473 29754 ft 431 kts 42°
2026-05-05 10:27 51.80761 9.70935 29470 ft 441 kts 43°
2026-05-05 10:27 51.82919 9.74451 29283 ft 449 kts 43°
2026-05-05 10:27 51.85256 9.77856 29068 ft 455 kts 31°
2026-05-05 10:28 51.88067 9.80229 28909 ft 457 kts 16°
2026-05-05 10:28 51.91090 9.81713 28718 ft 447 kts
2026-05-05 10:28 51.94096 9.82634 28458 ft 430 kts
2026-05-05 10:28 51.97014 9.83264 28153 ft 417 kts
2026-05-05 10:29 51.99866 9.83764 27733 ft 408 kts
2026-05-05 10:29 52.02680 9.84238 27223 ft 403 kts
2026-05-05 10:29 52.05431 9.84696 26721 ft 399 kts
2026-05-05 10:29 52.08174 9.85179 26223 ft 395 kts
2026-05-05 10:30 52.10894 9.85663 25755 ft 391 kts
2026-05-05 10:30 52.13589 9.86186 25335 ft 387 kts
2026-05-05 10:30 52.16239 9.86714 24955 ft 380 kts
2026-05-05 10:30 52.18853 9.87215 24541 ft 376 kts
2026-05-05 10:31 52.21439 9.87708 24147 ft 371 kts
2026-05-05 10:31 52.23959 9.88236 23755 ft 368 kts
2026-05-05 10:31 52.26469 9.89025 23345 ft 366 kts
2026-05-05 10:31 52.28934 9.89995 22870 ft 363 kts 11°
2026-05-05 10:32 52.31373 9.91046 22405 ft 360 kts 12°
2026-05-05 10:32 52.33788 9.92114 21950 ft 357 kts 12°
2026-05-05 10:32 52.36183 9.93188 21531 ft 354 kts 12°
2026-05-05 10:32 52.38553 9.94276 21092 ft 351 kts 13°
2026-05-05 10:33 52.40866 9.95330 20683 ft 349 kts 12°
2026-05-05 10:33 52.43201 9.96371 20273 ft 346 kts 12°
2026-05-05 10:33 52.45516 9.97391 19854 ft 344 kts 12°
2026-05-05 10:33 52.47825 9.98405 19443 ft 342 kts 12°
2026-05-05 10:34 52.50114 9.99416 19023 ft 340 kts 13°
2026-05-05 10:34 52.52390 10.00454 18617 ft 338 kts 13°
2026-05-05 10:34 52.54659 10.01466 18210 ft 336 kts 12°
2026-05-05 10:34 52.56914 10.02455 17755 ft 335 kts 12°
2026-05-05 10:35 52.59166 10.03442 17307 ft 333 kts 12°
2026-05-05 10:35 52.61407 10.04454 16858 ft 332 kts 13°
2026-05-05 10:35 52.63605 10.05460 16413 ft 331 kts 13°
2026-05-05 10:35 52.65829 10.06450 15979 ft 330 kts 12°
2026-05-05 10:36 52.68057 10.07432 15549 ft 330 kts 12°
2026-05-05 10:36 52.70269 10.08415 15181 ft 330 kts 13°
2026-05-05 10:36 52.72484 10.09427 14768 ft 329 kts 13°
2026-05-05 10:36 52.74694 10.10421 14352 ft 328 kts 12°
2026-05-05 10:37 52.76900 10.11403 13946 ft 328 kts 12°
2026-05-05 10:37 52.78377 10.11893 13674 ft 325 kts
2026-05-05 10:37 52.80630 10.12116 13214 ft 323 kts 359°
2026-05-05 10:37 52.82873 10.12211 12784 ft 322 kts 359°
2026-05-05 10:38 52.85105 10.12237 12344 ft 320 kts 358°
2026-05-05 10:38 52.87331 10.12244 11906 ft 319 kts 358°
2026-05-05 10:38 52.89545 10.12258 11475 ft 317 kts 358°
2026-05-05 10:38 52.91752 10.12282 11050 ft 316 kts 358°
2026-05-05 10:39 52.93941 10.12329 10729 ft 312 kts 359°
2026-05-05 10:39 52.96104 10.12386 10412 ft 309 kts 359°
2026-05-05 10:39 52.98241 10.12455 10094 ft 306 kts 359°
2026-05-05 10:39 53.00361 10.12522 9768 ft 303 kts 359°
2026-05-05 10:40 53.02438 10.12587 9419 ft 300 kts 359°
2026-05-05 10:40 53.04517 10.12659 9070 ft 298 kts 359°
2026-05-05 10:40 53.06588 10.12731 8720 ft 296 kts 359°
2026-05-05 10:40 53.08637 10.12795 8379 ft 294 kts 359°
2026-05-05 10:41 53.10680 10.12859 8039 ft 292 kts 359°
2026-05-05 10:41 53.12710 10.12935 7706 ft 291 kts
2026-05-05 10:41 53.14707 10.13006 7379 ft 290 kts 359°
2026-05-05 10:41 53.16717 10.13050 7050 ft 288 kts 356°
2026-05-05 10:42 53.20009 10.10068 6456 ft 274 kts 298°
2026-05-05 10:42 53.20624 10.07122 6206 ft 267 kts 280°
2026-05-05 10:42 53.21050 10.04105 5945 ft 267 kts 284°
2026-05-05 10:43 53.21596 10.01148 5682 ft 266 kts 288°
2026-05-05 10:43 53.22239 9.98262 5389 ft 264 kts 291°
2026-05-05 10:43 53.22977 9.95462 5212 ft 260 kts 295°
2026-05-05 10:43 53.23792 9.92829 5076 ft 255 kts 297°
2026-05-05 10:44 53.24637 9.90248 4934 ft 251 kts 298°
2026-05-05 10:44 53.25504 9.87750 4794 ft 247 kts 301°
2026-05-05 10:44 53.26390 9.85313 4661 ft 243 kts 302°
2026-05-05 10:44 53.27276 9.82961 4529 ft 236 kts 302°
2026-05-05 10:45 53.28150 9.80682 4415 ft 230 kts 302°
2026-05-05 10:45 53.29003 9.78467 4326 ft 224 kts 302°
2026-05-05 10:45 53.29839 9.76304 4255 ft 219 kts 301°
2026-05-05 10:45 53.30643 9.74180 4137 ft 214 kts 303°
2026-05-05 10:46 53.31452 9.72111 4029 ft 210 kts 303°
2026-05-05 10:46 53.32243 9.70070 3902 ft 207 kts 302°
2026-05-05 10:46 53.33000 9.68089 3795 ft 200 kts 302°
2026-05-05 10:46 53.33720 9.66192 3735 ft 187 kts 302°
2026-05-05 10:47 53.34406 9.64374 3646 ft 183 kts 302°
2026-05-05 10:47 53.35092 9.62578 3563 ft 183 kts 303°
2026-05-05 10:47 53.35787 9.60769 3475 ft 186 kts 303°
2026-05-05 10:47 53.36491 9.58923 3371 ft 189 kts 303°
2026-05-05 10:48 53.37202 9.57052 3265 ft 192 kts 303°
2026-05-05 10:48 53.37931 9.55136 3170 ft 198 kts 304°
2026-05-05 10:48 53.38982 9.53676 3102 ft 201 kts 341°
2026-05-05 10:48 53.40361 9.53682 3087 ft 202 kts 20°
2026-05-05 10:49 53.41485 9.55066 3098 ft 203 kts 46°
2026-05-05 10:49 53.42442 9.56790 3095 ft 205 kts 49°
2026-05-05 10:49 53.43340 9.58658 3095 ft 207 kts 52°
2026-05-05 10:49 53.44215 9.60592 3084 ft 207 kts 53°
2026-05-05 10:50 53.45071 9.62486 3052 ft 199 kts 53°
2026-05-05 10:50 53.45900 9.64272 3032 ft 188 kts 51°
2026-05-05 10:50 53.46695 9.65935 3022 ft 178 kts 51°
2026-05-05 10:50 53.47461 9.67506 2996 ft 169 kts 50°
2026-05-05 10:51 53.48200 9.68988 2990 ft 160 kts 50°
2026-05-05 10:51 53.48893 9.70368 2990 ft 149 kts 50°
2026-05-05 10:51 53.49533 9.71637 2983 ft 139 kts 49°
2026-05-05 10:51 53.50138 9.72838 2969 ft 130 kts 50°
2026-05-05 10:52 53.50711 9.73982 2976 ft 129 kts 50°
2026-05-05 10:52 53.51313 9.75185 3017 ft 140 kts 50°
2026-05-05 10:52 53.51954 9.76471 3048 ft 146 kts 49°
2026-05-05 10:52 53.52613 9.77775 3026 ft 149 kts 50°
2026-05-05 10:53 53.53288 9.79116 2826 ft 149 kts 51°
2026-05-05 10:53 53.53948 9.80463 2614 ft 148 kts 51°
2026-05-05 10:53 53.54595 9.81769 2431 ft 143 kts 50°
2026-05-05 10:53 53.55222 9.83028 2187 ft 138 kts 50°
2026-05-05 10:54 53.55801 9.84215 1982 ft 127 kts 51°
2026-05-05 10:54 53.56339 9.85313 1791 ft 117 kts 52°
2026-05-05 10:54 53.56853 9.86351 1640 ft 116 kts 52°
2026-05-05 10:54 53.57396 9.87453 1496 ft 126 kts 51°
2026-05-05 10:55 53.57966 9.88594 1334 ft 128 kts 50°
2026-05-05 10:55 53.58542 9.89754 1142 ft 130 kts 50°
2026-05-05 10:55 53.59118 9.90916 962 ft 130 kts 51°
2026-05-05 10:55 53.59701 9.92099 786 ft 133 kts 51°
2026-05-05 10:56 53.60300 9.93294 593 ft 134 kts 50°
2026-05-05 10:56 53.60889 9.94450 435 ft 125 kts 50°
2026-05-05 10:56 53.61439 9.95582 204 ft 121 kts 48°
2026-05-05 10:56 53.61954 9.96636 60 ft 111 kts 51°
2026-05-05 10:57 53.62410 9.97559 40 ft 93 kts 51°
2026-05-05 10:57 53.62666 9.98090 42 ft 37 kts 51°
2026-05-05 10:57 53.62761 9.98310 43 ft 17 kts 94°
2026-05-05 10:57 53.62717 9.98394 44 ft 8 kts 138°